Volver al catálogo

STARLINK-2364

ActivoComunicacionesVLEO
NORAD 47904·PAYLOAD·🇺🇸 United States

Lanzado Mar 14, 2021 desde Cape Canaveral Space Force Station

Loading…

Próximos Pases (próximas 24 horas)

TLE

ActualizadoSource: CelesTrak SupGP

Época: Sep 14, 2026, 20:20 UTC

1 47904C 21021AW  26257.84770833 -.00008442  00000+0 -27163-3 0  2570
2 47904  53.1575  94.9618 0001195  81.4846 331.4105 15.31689387    15

Sigue STARLINK-2364 en tiempo real con AllMySat

Download on the App Store